Lid_Strength_Index
9 13 16 16 12 11 10 7 9 9 6 5 6 3 3 2 1 2 0 0 0 -2 -2 -2 -2 -2 -2 -2 -2 -2 -1 -1
11 16 14 13 12 10 9 8 8 7 7 4 2 2 3 2 2 3 0 -0 -1 -2 -2 -2 -2 -2 -2 -2 -2 -2 -2 -2
13 14 13 11 10 10 10 8 8 7 7 6 2 2 2 3 2 3 3 1 -0 -2 -2 -2 -2 -2 -2 -2 -2 -2 -2 -2
14 14 11 11 9 9 9 9 8 6 6 6 3 3 3 3 3 1 1 2 1 -2 -2 -2 -2 -3 -3 -3 -2 -2 -2 -2
12 13 12 10 10 10 10 9 8 6 7 6 5 3 3 4 4 3 3 3 2 3 0 -2 -2 -3 -2 -2 -2 -1 -1 -2
13 13 13 10 9 9 9 9 4 4 7 9 6 4 4 4 5 5 4 3 3 3 1 1 1 -1 -0 -1 -1 -1 -1 -1
13 12 12 11 11 9 7 7 5 4 5 5 4 4 4 5 5 4 3 4 4 2 2 2 1 1 0 -1 -1 -1 -1 -1
9 10 11 10 9 8 8 6 6 5 5 4 4 5 5 6 5 4 4 3 2 2 2 2 1 3 2 0 0 0 -0 1
9 9 8 9 8 7 7 8 7 7 6 6 6 5 5 5 5 6 5 3 2 2 2 3 2 2 2 0 1 -0 0 0
9 8 9 9 7 7 6 7 5 5 5 5 5 5 5 5 5 4 3 2 2 2 2 3 2 2 2 1 -0 1 1 2
8 9 9 7 8 7 7 5 4 5 5 6 6 5 4 4 4 4 3 2 3 2 3 2 2 2 2 1 0 1 2 2
9 9 9 8 8 7 6 5 5 5 6 6 5 5 5 4 4 3 3 2 3 2 2 2 2 3 2 2 2 2 2 1
9 9 9 8 9 8 5 5 5 6 6 5 5 5 4 4 4 3 2 3 3 2 2 3 2 2 2 2 2 2 2 1
10 8 8 9 12 7 6 6 6 6 6 6 6 5 4 3 3 3 3 2 3 1 2 2 2 2 2 2 2 2 2 2
11 9 9 10 11 7 6 7 7 7 7 7 6 6 4 3 3 3 3 2 4 3 2 2 2 2 3 2 2 2 2 2
12 10 9 11 11 8 7 7 7 8 7 7 7 6 4 3 3 3 2 2 3 3 3 3 3 3 3 3 3 2 2 1
10 9 10 10 11 9 7 7 8 9 8 8 7 6 4 3 3 3 2 3 3 3 4 3 4 4 4 4 3 2 1 1
9 9 10 10 10 9 8 8 7 9 9 8 8 7 5 3 4 3 3 3 2 3 4 3 3 3 3 4 3 3 2 1
10 9 9 10 11 9 8 8 7 8 8 8 8 7 5 4 4 4 3 3 2 2 3 3 3 3 3 3 3 3 3 2
9 11 14 10 16 12 10 9 8 9 10 9 8 6 5 4 5 4 3 3 2 2 2 3 4 4 4 4 4 3 3 1